[[{"header":{"parameterUnit":"m.s-1","parameterCategory":1,"la1":30.2991,"la2":30.254,"lo1":-89.0895,"lo2":-89.0444,"dy":0.0017,"dx":0.0017,"nx":28,"ny":28,"refTime":"2023-10-25T09:00:00:Z","depth":0,"parameterNumber":2,"parameterNumberName":"U-component_of_WINDS"},"data":[0,0,0,0,0,0,0,0,0,0,0,0,0,0,0,0,0,0,0,0,0,0,0,0,0,0,0,0,0,0,0,0,0,0,0,0,0,0,0,0,0,0,0,0,0,0,0,0,0,0,0,0,0,0,0,0,0,0,-4.9687,-4.9689,0,-4.9827,-4.9829,-4.983,-4.9867,-4.9866,-4.9866,-4.9865,-5.0011,-5.0016,-5.0021,0,0,0,0,0,0,0,0,0,0,0,0,0,-4.9459,-4.9463,-4.9687,-4.9689,-4.9691,-4.9827,-4.9829,-4.9831,-4.9867,-4.9866,-4.9865,-4.9864,-5.001,-5.0015,-5.0021,0,0,0,0,0,0,0,0,0,0,0,0,0,-4.9574,-4.9464,-4.9687,-4.9725,-4.973,-4.9826,-4.9829,-4.9831,-4.9868,-4.9866,-4.9865,-4.9864,-5.0008,-5.0015,-5.0022,-5.0091,0,0,-5.0043,-5.0046,0,0,0,0,0,0,0,0,-4.9568,-4.9583,-4.9718,-4.9723,-4.9728,-4.9828,-4.9802,-4.9918,-4.9868,-4.9816,-4.9865,-4.9863,-4.9952,-4.9963,-4.9993,-5.0098,-5.0104,-5.0044,-5.0048,-5.0051,-5.0053,0,0,0,0,0,0,0,-4.956,-4.9577,-4.9743,-4.972,-4.9726,-4.9738,-4.9753,-4.9824,-4.9889,-4.982,-4.9823,-4.9839,-4.9954,-4.9986,-4.9996,-5.0106,-5.0044,-5.005,-5.0054,-5.0057,-5.028,-5.0282,0,0,0,0,0,0,-4.9544,-4.957,-4.9738,-4.9747,-4.9643,-4.9743,-4.976,-4.9798,-4.9888,-4.9901,-4.984,-4.984,-4.9974,-4.9988,-5.0002,-5.009,-5.0051,-5.0058,-5.0062,-5.0279,-5.0281,-5.0283,0,0,0,0,0,0,-4.9539,-4.9559,-4.9733,-4.9659,-4.9682,-4.9748,-4.9791,-4.9801,-4.9832,-4.9903,-4.9916,-4.9859,-4.9974,-4.9992,-5.0069,-5.0096,-5.0061,-5.0067,-5.0277,-5.0279,-5.0282,-5.0267,0,0,0,0,0,0,-4.9533,-4.9557,-4.9582,-4.966,-4.9686,-4.9795,-4.9792,-4.9805,-4.9844,-4.9845,-4.9925,-4.9937,-4.9974,-5.0058,-5.0076,-5.0105,-5.0073,-5.0274,-5.0278,-5.0281,-5.0265,-5.0268,-5.0271,0,0,0,0,0,-4.9524,-4.9572,-4.9583,-4.9603,-4.9718,-4.9796,-4.9812,-4.9853,-4.9846,-4.9872,-4.9919,-4.9934,-5.0091,-5.0066,-5.0086,-5.0117,-5.0273,-5.0277,-5.0281,-5.0263,-5.0268,-5.0271,0,0,0,0,0,0,-4.9495,-4.9582,-4.9595,-4.9669,-4.9725,-4.9803,-4.9837,-4.9855,-4.9915,-4.9914,-4.9964,-4.9982,-5.0057,-5.0096,-5.0066,-5.0192,-5.0182,-5.019,-5.0162,-5.0167,-5.017,-5.0158,-5.0079,0,0,0,0,0,-4.9497,-4.9552,-4.9626,-4.9684,-4.9712,-4.977,-4.9805,-4.9833,-4.9893,-4.9917,-4.9969,-5.0029,-5.0092,-5.0132,-5.0194,-5.0272,-5.0292,-5.0305,-5.0308,-5.031,-5.0315,-5.0363,-5.037,-5.0295,-5.0295,-5.0295,0,0,-4.9501,-4.9556,-4.9587,-4.968,-4.9726,-4.9784,-4.9789,-4.9849,-4.9893,-4.9927,-5.0002,-5.0044,-5.0115,-5.0193,-5.0231,-5.0228,-5.0341,-5.0315,-5.0316,-5.032,-5.0368,-5.0375,-5.0381,-5.0298,-5.0297,-5.0297,0,0,-4.9539,-4.9585,-4.964,-4.9687,-4.9758,-4.9798,-4.9811,-4.9887,-4.9916,-4.9993,-5.0021,-5.0076,-5.0182,-5.0232,-5.0271,-5.0335,-5.0352,-5.0354,-5.0369,-5.0415,-5.0421,-5.0427,-5.045,-5.0458,-5.036,-5.036,-5.036,0,-4.9535,-4.9622,-4.9666,-4.9726,-4.9767,-4.9801,-4.9858,-4.9903,-4.999,-5.0019,-5.0015,-5.0153,-5.0202,-5.0295,-5.0311,-5.0341,-5.036,-5.0343,-5.0417,-5.0423,-5.0428,-5.0452,-5.046,-5.036,-5.036,-5.036,-5.036,0,-4.9615,-4.9675,-4.9711,-4.9795,-4.9841,-4.9899,-4.9955,-4.9997,-5.0022,-5.0063,-5.0144,-5.0206,-5.0282,-5.0307,-5.0331,-5.0404,-5.0401,-5.0406,-5.0397,-5.0434,-5.0457,-5.0466,-5.036,-5.036,-5.036,-5.036,0,0,-4.9633,-4.9744,-4.9757,-4.9797,-4.988,-4.9929,-4.9991,-5.0066,-5.0101,-5.0163,-5.0217,-5.031,-5.0317,-5.0362,-5.0394,-5.0434,-5.0483,-5.0435,-5.0438,-5.0442,-5.057,-5.0564,-5.0573,-5.0496,-5.0498,-5.05,-5.0564,0,-4.9681,-4.979,-4.9834,-4.9924,-4.9982,-5.0019,-5.0074,-5.0132,-5.0174,-5.0231,-5.0279,-5.0343,-5.0347,-5.0375,-5.0417,-5.0467,-5.0509,-5.0464,-5.0549,-5.0552,-5.0528,-5.0585,-5.0578,-5.0635,-5.0573,-5.0575,-5.0576,0,-4.9749,-4.9812,-4.9907,-4.9987,-5.0014,-5.0061,-5.0135,-5.0189,-5.0259,-5.0287,-5.0339,-5.037,-5.044,-5.043,-5.0529,-5.0497,-5.0536,-5.0567,-5.0571,-5.0578,-5.0564,-5.0594,-5.0654,-5.0662,-5.059,-5.0589,-5.0588,0,-4.9753,-4.9861,-4.9933,-4.9967,-5.0062,-5.0095,-5.0137,-5.0205,-5.0249,-5.0315,-5.0344,-5.0418,-5.0458,-5.0517,-5.0568,-5.0555,-5.0663,-5.0656,-5.069,-5.0689,-5.0708,-5.0706,-5.0775,-5.0735,-5.0735,-5.0735,-5.0735,0,-4.9801,-4.9858,-4.9937,-4.998,-5.0047,-5.01,-5.0166,-5.021,-5.0272,-5.0328,-5.0365,-5.0417,-5.0482,-5.0544,-5.0585,-5.0662,-5.0681,-5.0707,-5.0717,-5.0702,-5.0699,-5.0726,-5.0723,-5.0738,-5.0737,-5.0737,-5.0736,0,-4.9814,-4.9869,-4.995,-5.0035,-5.0058,-5.0104,-5.0178,-5.0224,-5.0269,-5.034,-5.0359,-5.0431,-5.0506,-5.0564,-5.0661,-5.069,-5.0771,-5.0783,-5.0747,-5.0752,-5.0782,-5.0778,-5.0869,-5.0885,-5.0836,-5.0836,-5.0836,0,-4.984,-4.9885,-4.9976,-5.0015,-5.0057,-5.012,-5.0165,-5.0221,-5.0267,-5.0353,-5.0389,-5.0467,-5.0531,-5.065,-5.0712,-5.0789,-5.0802,-5.0829,-5.0813,-5.0798,-5.0802,-5.0798,-5.0804,-5.083,-5.083,-5.083,-5.083,0,-4.988,-4.9907,-4.9969,-5.0043,-5.0095,-5.0156,-5.0218,-5.0249,-5.0317,-5.0367,-5.0444,-5.0494,-5.0595,-5.0673,-5.0756,-5.0802,-5.0829,-5.0836,-5.0847,-5.0832,-5.0809,-5.0822,-5.0751,-5.0832,-5.0832,-5.0832,-5.0832,-5.0832,-4.9901,-4.9944,-5.0015,-5.0085,-5.0138,-5.0196,-5.0244,-5.0296,-5.0361,-5.0446,-5.0477,-5.0556,-5.063,-5.0745,-5.0793,-5.0858,-5.0859,-5.0876,-5.088,-5.0883,-5.0882,-5.0801,-5.0874,-5.0874,-5.0874,-5.0874,-5.0874,0,-4.9943,-4.9992,-5.0056,-5.0142,-5.0198,-5.0218,-5.0289,-5.0335,-5.0404,-5.047,-5.0534,-5.0624,-5.0701,-5.0771,-5.0852,-5.0891,-5.0906,-5.0911,-5.0907,-5.0918,-5.0876,-5.0857,-5.0898,-5.0898,-5.0898,-5.0898,-5.0898,-5.0898,-4.9972,-5.0046,-5.0081,-5.0184,-5.0233,-5.031,-5.0349,-5.0405,-5.0458,-5.0556,-5.062,-5.0665,-5.0735,-5.0822,-5.0895,-5.0914,-5.0942,-5.0944,-5.0966,-5.0924,-5.0921,-5.0918,-5.09,-5.0949,-5.0949,-5.1003,-5.1003,-5.1004]},{"header":{"parameterUnit":"m.s-1","parameterCategory":1,"la1":30.2991,"la2":30.254,"lo1":-89.0895,"lo2":-89.0444,"dy":0.0017,"dx":0.0017,"nx":28,"ny":28,"refTime":"2023-10-25T09:00:00:Z","depth":0,"parameterNumber":3,"parameterNumberName":"V-component_of_WINDS"},"data":[0,0,0,0,0,0,0,0,0,0,0,0,0,0,0,0,0,0,0,0,0,0,0,0,0,0,0,0,0,0,0,0,0,0,0,0,0,0,0,0,0,0,0,0,0,0,0,0,0,0,0,0,0,0,0,0,0,0,1.9767,1.9767,0,1.9755,1.9755,1.9755,1.9793,1.9794,1.9795,1.9796,1.9779,1.9778,1.9776,0,0,0,0,0,0,0,0,0,0,0,0,0,1.9818,1.9816,1.9767,1.9767,1.9766,1.9755,1.9755,1.9755,1.9793,1.9794,1.9796,1.9797,1.978,1.9778,1.9776,0,0,0,0,0,0,0,0,0,0,0,0,0,1.98,1.9816,1.9767,1.9784,1.9786,1.9755,1.9755,1.9755,1.9792,1.9794,1.9796,1.9798,1.978,1.9778,1.9776,1.9727,0,0,1.9769,1.9768,0,0,0,0,0,0,0,0,1.9801,1.9798,1.9782,1.9783,1.9784,1.9778,1.9767,1.9745,1.9792,1.979,1.9796,1.9798,1.9777,1.9775,1.9769,1.9726,1.9726,1.9769,1.9767,1.9766,1.9766,0,0,0,0,0,0,0,1.9802,1.9798,1.9762,1.9781,1.9783,1.9791,1.9791,1.9763,1.9773,1.979,1.9793,1.9791,1.9778,1.9771,1.9769,1.9725,1.9769,1.9767,1.9765,1.9764,1.9645,1.9643,0,0,0,0,0,0,1.9801,1.9799,1.9762,1.9762,1.9797,1.9789,1.9788,1.9778,1.9774,1.9775,1.979,1.9793,1.9774,1.9771,1.9768,1.9713,1.9766,1.9764,1.9763,1.9647,1.9645,1.9643,0,0,0,0,0,0,1.9802,1.9798,1.9763,1.9781,1.9778,1.9786,1.9774,1.9777,1.977,1.9774,1.9775,1.9781,1.9775,1.9772,1.9738,1.9713,1.9763,1.9761,1.9649,1.9646,1.9644,1.9601,0,0,0,0,0,0,1.9804,1.9798,1.978,1.9781,1.9776,1.9734,1.9773,1.9775,1.9767,1.9771,1.9766,1.9767,1.9776,1.9741,1.9736,1.9711,1.9759,1.9651,1.9648,1.9644,1.9605,1.9597,1.9591,0,0,0,0,0,1.9805,1.9767,1.9779,1.9774,1.9755,1.9732,1.973,1.9743,1.9764,1.9746,1.9749,1.9767,1.9717,1.9738,1.9732,1.9706,1.9653,1.9649,1.9645,1.9608,1.9599,1.9591,0,0,0,0,0,0,1.976,1.9767,1.9781,1.9741,1.9736,1.9739,1.9716,1.9732,1.972,1.9724,1.9739,1.9738,1.9702,1.97,1.9723,1.966,1.9688,1.9683,1.9662,1.9654,1.9647,1.9648,1.9757,0,0,0,0,0,1.9746,1.9729,1.9735,1.9699,1.9697,1.9707,1.9697,1.9709,1.9703,1.9701,1.9701,1.9694,1.9677,1.9665,1.9649,1.9604,1.9605,1.9584,1.9577,1.9571,1.9566,1.9545,1.9536,1.9629,1.9629,1.9629,0,0,1.9716,1.9717,1.9705,1.9691,1.9688,1.9669,1.9705,1.9682,1.9669,1.9696,1.9666,1.9666,1.9659,1.9621,1.9604,1.9618,1.9541,1.9566,1.9561,1.956,1.954,1.9531,1.9523,1.9627,1.9627,1.9627,0,0,1.9652,1.9651,1.9623,1.962,1.9617,1.9624,1.9618,1.9618,1.962,1.959,1.9612,1.9595,1.9564,1.956,1.9553,1.949,1.9507,1.9484,1.9448,1.9427,1.942,1.9413,1.9393,1.9385,1.9479,1.9479,1.9479,0,1.9614,1.9588,1.9605,1.9583,1.9577,1.9604,1.9576,1.9572,1.9562,1.9557,1.9573,1.9538,1.9535,1.9497,1.9482,1.9475,1.9468,1.9485,1.942,1.9413,1.9408,1.9388,1.938,1.9476,1.9477,1.9477,1.9477,0,1.9543,1.9525,1.9502,1.9496,1.9487,1.9461,1.9474,1.9463,1.9475,1.9481,1.9451,1.9449,1.9434,1.9426,1.9436,1.939,1.9399,1.9417,1.9447,1.9396,1.9378,1.9371,1.9473,1.9474,1.9475,1.9475,0,0,1.945,1.9456,1.9447,1.9446,1.9445,1.9431,1.9407,1.9395,1.9386,1.9378,1.9359,1.9334,1.9352,1.9345,1.9355,1.9336,1.9289,1.9357,1.9357,1.9346,1.9241,1.9228,1.9219,1.93,1.9299,1.9298,1.9242,0,1.9389,1.935,1.9366,1.9326,1.931,1.9337,1.9316,1.9313,1.9318,1.9304,1.9309,1.9292,1.9316,1.9312,1.9295,1.9299,1.9269,1.9303,1.9283,1.9282,1.9285,1.9209,1.9196,1.9143,1.9235,1.9233,1.9233,0,1.9312,1.9306,1.9265,1.927,1.9263,1.9245,1.9237,1.9223,1.9221,1.9226,1.9219,1.9234,1.9211,1.924,1.9208,1.9231,1.9224,1.9225,1.9223,1.9222,1.9255,1.9208,1.9126,1.9119,1.9221,1.9222,1.9223,0,1.9251,1.9231,1.9205,1.9202,1.9207,1.9194,1.9194,1.9194,1.9187,1.9179,1.9174,1.9163,1.9157,1.9147,1.9159,1.9179,1.9126,1.9156,1.913,1.913,1.9118,1.9119,1.9036,1.9111,1.9111,1.9111,1.9112,0,1.9182,1.9156,1.9178,1.9162,1.9134,1.9152,1.9124,1.9127,1.9127,1.9112,1.9133,1.9118,1.9133,1.912,1.9128,1.9102,1.9098,1.9102,1.9105,1.9101,1.9101,1.9097,1.9102,1.9109,1.911,1.911,1.9111,0,1.9109,1.9122,1.9096,1.9103,1.9105,1.9084,1.909,1.9075,1.9082,1.9063,1.9059,1.907,1.9055,1.9066,1.905,1.9056,1.9023,1.903,1.9024,1.9027,1.9001,1.9004,1.8914,1.8903,1.8984,1.8983,1.8982,0,1.9065,1.9046,1.9053,1.9046,1.9046,1.9033,1.9027,1.9044,1.9036,1.9033,1.9019,1.9007,1.8998,1.8973,1.8979,1.8968,1.8975,1.8944,1.8974,1.8972,1.8977,1.8979,1.8978,1.8939,1.8938,1.8937,1.8936,0,1.8986,1.8994,1.8986,1.8979,1.8972,1.8967,1.8964,1.8956,1.8974,1.8964,1.8951,1.8944,1.893,1.8918,1.891,1.8909,1.8926,1.8927,1.8921,1.8918,1.8916,1.8919,1.901,1.8929,1.893,1.893,1.8931,1.8931,1.8928,1.8914,1.8917,1.8907,1.8907,1.8904,1.8892,1.8899,1.8888,1.888,1.889,1.8874,1.8874,1.8864,1.8862,1.885,1.8863,1.8853,1.8851,1.8849,1.8846,1.8917,1.8848,1.8848,1.8848,1.8848,1.8849,0,1.8852,1.8856,1.8847,1.8843,1.8836,1.8854,1.8852,1.8844,1.883,1.8829,1.8821,1.8807,1.8795,1.8801,1.8792,1.8781,1.8788,1.8778,1.8779,1.8779,1.8834,1.8842,1.8772,1.8772,1.8772,1.8772,1.8772,1.8772,1.8812,1.879,1.8799,1.8777,1.8781,1.8767,1.8765,1.8763,1.8762,1.8746,1.8738,1.8742,1.8744,1.8735,1.8726,1.8728,1.8724,1.8711,1.8716,1.8767,1.8775,1.8782,1.8789,1.871,1.871,1.8663,1.8662,1.8662]}]]